Weather History for Montague, CA

Change the Weather History Date:

Wednesday, May 7, 2014

  Actual Average Record
Temperature  
Mean Temperature 50 °F 54 °F  
Max Temperature 70 °F 69 °F 94 °F (1987)
Min Temperature 29 °F 39 °F 25 °F (1950)
Degree Days  
Heating Degree Days 15 11  
Month to date heating degree days 76 84  
Since 1 July heating degree days 5092 5182  
Cooling Degree Days 0 0  
Month to date cooling degree days 0 0  
Year to date cooling degree days 2 0  
Moisture  
Dew Point 31 °F    
Average Humidity 54    
Maximum Humidity 89    
Minimum Humidity 19    
Precipitation  
Precipitation 0.00 in 0.07 in 0.91 in (1952)
Month to date precipitation 0.02 0.47  
Year to date precipitation 5.43 8.55  
Sea Level Pressure  
Sea Level Pressure 29.98 in    
Wind  
Wind Speed 4 mph (North)    
Max Wind Speed 16 mph    
Max Gust Speed 20 mph    
Visibility 10 miles    
Events      
T = Trace of Precipitation, MM = Missing Value Source: NWS Daily Summary

Daily Weather History Graph

Daily Weather History Graph

Search for Another Location

Airport:

Trip Planner

Search our weather history database for the weather conditions in past years. The results will help you decide how hot, cold, wet, or windy it might be!

Date:

Astronomy

May. 07, 2014 Rise Set
Actual Time 5:58 AM PDT 8:14 PM PDT
Civil Twilight 5:27 AM PDT 8:45 PM PDT
Nautical Twilight 4:49 AM PDT 9:24 PM PDT
Astronomical Twilight 4:07 AM PDT 10:06 PM PDT
Moon 1:18 PM PDT (5/7) 2:07 AM PDT (5/7)
Length of Visible Light 15h 18m
Length of Day
14h 16m
First Quarter, 56% of the Moon is Illuminated
May 7
First Quarter
May 14
Full
May 21
Last Quarter
May 28
New
Jun 5
First Quarter

Hourly Weather History & Observations

Time (PDT) Temp. Windchill Dew Point Humidity Pressure Visibility Wind Dir Wind Speed Gust Speed Precip Events Conditions
12:53 AM 37.9 °F 31.5 °F 33.1 °F 83% 30.03 in 10.0 mi NNE 9.2 mph - N/A   Partly Cloudy
1:53 AM 33.1 °F 27.7 °F 28.9 °F 85% 30.03 in 10.0 mi NE 5.8 mph - N/A   Clear
2:53 AM 35.1 °F - 30.9 °F 85% 30.03 in 10.0 mi Calm Calm - N/A   Overcast
3:53 AM 33.1 °F - 28.0 °F 82% 30.03 in 10.0 mi Calm Calm - N/A   Clear
4:53 AM 33.1 °F - 30.0 °F 89% 30.04 in 10.0 mi Calm Calm - N/A   Clear
5:53 AM 30.0 °F - 27.0 °F 88% 30.03 in 10.0 mi Calm Calm - N/A   Clear
6:53 AM 34.0 °F - 28.9 °F 82% 30.03 in 10.0 mi Calm Calm - N/A   Clear
7:53 AM 42.1 °F - 34.0 °F 73% 30.04 in 10.0 mi Calm Calm - N/A   Clear
8:53 AM 48.9 °F - 35.1 °F 59% 30.04 in 10.0 mi North 3.5 mph - N/A   Clear
11:53 AM 57.9 °F - 32.0 °F 37% 30.00 in 10.0 mi Variable 4.6 mph - N/A   Clear
12:53 PM 61.0 °F - 32.0 °F 34% 29.99 in 10.0 mi SW 4.6 mph - N/A   Clear
1:53 PM 64.0 °F - 27.0 °F 25% 29.97 in 10.0 mi Variable 3.5 mph - N/A   Clear
3:53 PM 66.9 °F - 25.0 °F 21% 29.93 in 10.0 mi Calm Calm - N/A   Clear
4:53 PM 68.0 °F - 25.0 °F 20% 29.91 in 10.0 mi Calm Calm - N/A   Clear
5:53 PM 66.9 °F - 28.9 °F 24% 29.91 in 10.0 mi Calm Calm - N/A   Clear
6:53 PM 64.0 °F - 36.0 °F 35% 29.92 in 10.0 mi North 13.8 mph - N/A   Clear
7:53 PM 59.0 °F - 34.0 °F 39% 29.93 in 10.0 mi NNE 10.4 mph - N/A   Clear
8:53 PM 57.0 °F - 32.0 °F 39% 29.94 in 10.0 mi North 10.4 mph - N/A   Clear
9:53 PM 57.0 °F - 34.0 °F 42% 29.95 in 10.0 mi NNW 10.4 mph - N/A   Clear
10:53 PM 55.9 °F - 37.0 °F 49% 29.95 in 10.0 mi NW 9.2 mph - N/A   Clear
11:53 PM 54.0 °F - 34.0 °F 47% 29.95 in 10.0 mi North 11.5 mph - N/A   Clear